SB KEPS @ AMSAT $ORB13178.O Orbital Elements 13178.OSCAR
HR AMSAT ORBITAL ELEMENTS FOR OSCAR SATELLITES FROM WA5QGD FORT WORTH,TX June 27, 2013 BID: ORB13178.O TO ALL RADIO AMATEURS BT
Satellite: AO-07 Catalog number: 07530 Epoch time: 13178.50187512 Element set: 714 Inclination: 101.4308 deg RA of node: 167.6334 deg Eccentricity: 0.0011388 Arg of perigee: 268.1404 deg Mean anomaly: 237.6877 deg Mean motion: 12.53596767 rev/day Decay rate: -2.5e-07 rev/day^2 Epoch rev: 76707 Checksum: 313
Satellite: FO-29 Catalog number: 24278 Epoch time: 13172.20080899 Element set: 139 Inclination: 098.5555 deg RA of node: 230.2316 deg Eccentricity: 0.0351339 Arg of perigee: 153.6341 deg Mean anomaly: 242.7942 deg Mean motion: 13.53002853 rev/day Decay rate: 1.3e-07 rev/day^2 Epoch rev: 83185 Checksum: 298
Satellite: SO-33 Catalog number: 25509 Epoch time: 13178.81381013 Element set: 526 Inclination: 031.4355 deg RA of node: 007.4533 deg Eccentricity: 0.0351460 Arg of perigee: 250.9330 deg Mean anomaly: 238.9694 deg Mean motion: 14.29091843 rev/day Decay rate: 1.27e-06 rev/day^2 Epoch rev: 76641 Checksum: 295
Satellite: RS-22 Catalog number: 27939 Epoch time: 13178.70415372 Element set: 533 Inclination: 097.7984 deg RA of node: 006.0033 deg Eccentricity: 0.0013751 Arg of perigee: 148.7931 deg Mean anomaly: 211.4094 deg Mean motion: 14.64489180 rev/day Decay rate: 5.07e-06 rev/day^2 Epoch rev: 52083 Checksum: 306
Satellite: VO-52 Catalog number: 28650 Epoch time: 13178.65642269 Element set: 458 Inclination: 097.5679 deg RA of node: 196.7219 deg Eccentricity: 0.0024654 Arg of perigee: 243.7353 deg Mean anomaly: 256.5543 deg Mean motion: 14.83942151 rev/day Decay rate: 6.63e-06 rev/day^2 Epoch rev: 44063 Checksum: 341
Satellite: HO-68 Catalog number: 36122 Epoch time: 13178.76688351 Element set: 671 Inclination: 100.3052 deg RA of node: 235.5520 deg Eccentricity: 0.0007391 Arg of perigee: 333.9827 deg Mean anomaly: 026.0901 deg Mean motion: 13.16305094 rev/day Decay rate: -4.4e-07 rev/day^2 Epoch rev: 16980 Checksum: 288
/EX SB KEPS @ AMSAT $ORB13178.D Orbital Elements 13178.MICROS
HR AMSAT ORBITAL ELEMENTS FOR THE MICROSATS FROM WA5QGD FORT WORTH,TX June 27, 2013 BID: ORB13178.D TO ALL RADIO AMATEURS BT
Satellite: UO-11 Catalog number: 14781 Epoch time: 13178.17509955 Element set: 214 Inclination: 097.9025 deg RA of node: 239.3448 deg Eccentricity: 0.0007697 Arg of perigee: 250.5970 deg Mean anomaly: 109.4410 deg Mean motion: 14.80925854 rev/day Decay rate: 3.68e-06 rev/day^2 Epoch rev: 57541 Checksum: 327
Satellite: AO-16 Catalog number: 20439 Epoch time: 13178.43313027 Element set: 779 Inclination: 098.4706 deg RA of node: 118.2227 deg Eccentricity: 0.0012037 Arg of perigee: 125.9591 deg Mean anomaly: 347.1960 deg Mean motion: 14.32183818 rev/day Decay rate: 5.9e-07 rev/day^2 Epoch rev: 22370 Checksum: 301
Satellite: LO-19 Catalog number: 20442 Epoch time: 13178.46628267 Element set: 713 Inclination: 098.4398 deg RA of node: 120.0077 deg Eccentricity: 0.0013141 Arg of perigee: 117.3600 deg Mean anomaly: 336.5330 deg Mean motion: 14.32394256 rev/day Decay rate: 5.1e-07 rev/day^2 Epoch rev: 22390 Checksum: 275
Satellite: AO-27 Catalog number: 22825 Epoch time: 13178.43863160 Element set: 416 Inclination: 098.6180 deg RA of node: 122.3553 deg Eccentricity: 0.0007307 Arg of perigee: 255.0614 deg Mean anomaly: 243.5807 deg Mean motion: 14.29571744 rev/day Decay rate: 3.9e-07 rev/day^2 Epoch rev: 3009 Checksum: 291
Satellite: IO-26 Catalog number: 22826 Epoch time: 13178.84026499 Element set: 173 Inclination: 098.6121 deg RA of node: 123.0373 deg Eccentricity: 0.0007918 Arg of perigee: 246.2623 deg Mean anomaly: 170.6450 deg Mean motion: 14.29856946 rev/day Decay rate: 3.2e-07 rev/day^2 Epoch rev: 3028 Checksum: 303
Satellite: GO-32 Catalog number: 25397 Epoch time: 13172.48778259 Element set: 99 Inclination: 098.4148 deg RA of node: 140.0585 deg Eccentricity: 0.0000078 Arg of perigee: 060.8594 deg Mean anomaly: 049.4109 deg Mean motion: 14.23345711 rev/day Decay rate: 2.1e-07 rev/day^2 Epoch rev: 77655 Checksum: 319
Satellite: NO-44 Catalog number: 26931 Epoch time: 13178.68673985 Element set: 358 Inclination: 067.0506 deg RA of node: 232.4432 deg Eccentricity: 0.0007858 Arg of perigee: 278.9151 deg Mean anomaly: 227.0106 deg Mean motion: 14.29935242 rev/day Decay rate: 2.9e-07 rev/day^2 Epoch rev: 61292 Checksum: 323
Satellite: SO-50 Catalog number: 27607 Epoch time: 13178.16386068 Element set: 98 Inclination: 064.5558 deg RA of node: 233.7655 deg Eccentricity: 0.0043833 Arg of perigee: 161.0454 deg Mean anomaly: 257.3078 deg Mean motion: 14.72977106 rev/day Decay rate: 2.61e-06 rev/day^2 Epoch rev: 56518 Checksum: 328
Satellite: CO-55 Catalog number: 27844 Epoch time: 13178.63205074 Element set: 680 Inclination: 098.7006 deg RA of node: 187.5523 deg Eccentricity: 0.0009212 Arg of perigee: 212.1951 deg Mean anomaly: 261.8542 deg Mean motion: 14.21233174 rev/day Decay rate: 1.23e-06 rev/day^2 Epoch rev: 51821 Checksum: 281
Satellite: CO-57 Catalog number: 27848 Epoch time: 13178.57039650 Element set: 625 Inclination: 098.7093 deg RA of node: 187.0094 deg Eccentricity: 0.0009075 Arg of perigee: 218.3657 deg Mean anomaly: 287.9827 deg Mean motion: 14.20957306 rev/day Decay rate: 1.08e-06 rev/day^2 Epoch rev: 51813 Checksum: 344
Satellite: AO-51 Catalog number: 28375 Epoch time: 13178.46661330 Element set: 590 Inclination: 098.2014 deg RA of node: 133.5131 deg Eccentricity: 0.0082825 Arg of perigee: 345.8931 deg Mean anomaly: 127.9863 deg Mean motion: 14.41132173 rev/day Decay rate: 1.13e-06 rev/day^2 Epoch rev: 47281 Checksum: 293
Satellite: CP3 Catalog number: 31129 Epoch time: 13172.39553471 Element set: 488 Inclination: 097.8974 deg RA of node: 164.7946 deg Eccentricity: 0.0101221 Arg of perigee: 055.0257 deg Mean anomaly: 053.8658 deg Mean motion: 14.53684736 rev/day Decay rate: 7.64e-06 rev/day^2 Epoch rev: 32760 Checksum: 328
Satellite: CO-65 Catalog number: 32785 Epoch time: 13178.83674692 Element set: 668 Inclination: 097.7511 deg RA of node: 236.0682 deg Eccentricity: 0.0012824 Arg of perigee: 270.5479 deg Mean anomaly: 201.4446 deg Mean motion: 14.83937250 rev/day Decay rate: 5.77e-06 rev/day^2 Epoch rev: 27945 Checksum: 348
Satellite: PRISM Catalog number: 33493 Epoch time: 13178.78606578 Element set: 933 Inclination: 098.2174 deg RA of node: 336.0642 deg Eccentricity: 0.0018759 Arg of perigee: 154.8024 deg Mean anomaly: 205.4103 deg Mean motion: 14.86092794 rev/day Decay rate: 3.062e-05 rev/day^2 Epoch rev: 23949 Checksum: 324
Satellite: SOHLA-1 Catalog number: 33496 Epoch time: 13178.14179731 Element set: 80 Inclination: 098.1359 deg RA of node: 294.1347 deg Eccentricity: 0.0005190 Arg of perigee: 291.2872 deg Mean anomaly: 161.7250 deg Mean motion: 14.70311004 rev/day Decay rate: 2.46e-06 rev/day^2 Epoch rev: 23733 Checksum: 281
Satellite: SO-67 Catalog number: 35870 Epoch time: 13178.85652896 Element set: 185 Inclination: 097.1899 deg RA of node: 207.2230 deg Eccentricity: 0.0000670 Arg of perigee: 007.2567 deg Mean anomaly: 118.2917 deg Mean motion: 15.27291437 rev/day Decay rate: 5.333e-05 rev/day^2 Epoch rev: 20988 Checksum: 338
Satellite: TISAT-1 Catalog number: 36799 Epoch time: 13178.84343627 Element set: 202 Inclination: 098.0343 deg RA of node: 263.5965 deg Eccentricity: 0.0015369 Arg of perigee: 038.5970 deg Mean anomaly: 321.6306 deg Mean motion: 14.83395648 rev/day Decay rate: 2.048e-05 rev/day^2 Epoch rev: 16015 Checksum: 323
Satellite: STUDSAT Catalog number: 36801 Epoch time: 13172.14905029 Element set: 646 Inclination: 098.0463 deg RA of node: 260.0384 deg Eccentricity: 0.0011881 Arg of perigee: 043.3614 deg Mean anomaly: 017.6697 deg Mean motion: 14.88496437 rev/day Decay rate: 6.423e-05 rev/day^2 Epoch rev: 15931 Checksum: 303
Satellite: ALMASAT-1 Catalog number: 38078 Epoch time: 13178.72490866 Element set: 384 Inclination: 069.4700 deg RA of node: 176.5547 deg Eccentricity: 0.0691521 Arg of perigee: 133.7707 deg Mean anomaly: 232.2808 deg Mean motion: 14.25497089 rev/day Decay rate: 1.6947e-04 rev/day^2 Epoch rev: 7074 Checksum: 344
Satellite: XATCOBEO Catalog number: 38082 Epoch time: 13178.77179703 Element set: 268 Inclination: 069.4723 deg RA of node: 150.4712 deg Eccentricity: 0.0566872 Arg of perigee: 119.4150 deg Mean anomaly: 312.1214 deg Mean motion: 14.57336494 rev/day Decay rate: 5.6739e-04 rev/day^2 Epoch rev: 7146 Checksum: 319
Satellite: SOMP Catalog number: 39135 Epoch time: 13172.41214188 Element set: 136 Inclination: 064.8774 deg RA of node: 195.3138 deg Eccentricity: 0.0012896 Arg of perigee: 206.9121 deg Mean anomaly: 153.1331 deg Mean motion: 15.00302082 rev/day Decay rate: 1.931e-05 rev/day^2 Epoch rev: 946 Checksum: 266
Satellite: CUBEBUG-1 Catalog number: 39153 Epoch time: 13172.40533395 Element set: 166 Inclination: 098.0738 deg RA of node: 248.1537 deg Eccentricity: 0.0019749 Arg of perigee: 071.9187 deg Mean anomaly: 288.4180 deg Mean motion: 14.76451900 rev/day Decay rate: 7.93e-06 rev/day^2 Epoch rev: 830 Checksum: 317
Satellite: ESTCUBE-1 Catalog number: 39161 Epoch time: 13178.79006426 Element set: 138 Inclination: 098.1267 deg RA of node: 256.9916 deg Eccentricity: 0.0011480 Arg of perigee: 080.9719 deg Mean anomaly: 279.2787 deg Mean motion: 14.68992700 rev/day Decay rate: 9.56e-06 rev/day^2 Epoch rev: 755 Checksum: 341
/EX SB KEPS @ AMSAT $ORB13178.W Orbital Elements 13178.WEATHER
HR AMSAT ORBITAL ELEMENTS FOR WEATHER SATELLITES FROM WA5QGD FORT WORTH,TX June 27, 2013 BID: ORB13178.W TO ALL RADIO AMATEURS BT
Satellite: NOAA-10 Catalog number: 16969 Epoch time: 13178.50817872 Element set: 404 Inclination: 098.5452 deg RA of node: 206.1220 deg Eccentricity: 0.0011915 Arg of perigee: 209.8939 deg Mean anomaly: 300.9609 deg Mean motion: 14.27647529 rev/day Decay rate: 4.5e-07 rev/day^2 Epoch rev: 39341 Checksum: 315
